Temperature
8 8 8 8 8 9 9 9 9 9 9 9 9 10 10 10 10 10 10 10 10 10 9 9 9 9 9 9 9 9 9 8 8 8 8 7 6 6 6 5 5 4 4
7 8 8 8 8 8 8 8 9 9 9 9 9 9 9 9 9 9 9 9 9 9 9 9 9 9 9 9 8 8 8 8 8 7 7 6 6 5 5 4 4 4 3
7 7 7 7 8 8 8 8 8 8 8 8 8 8 8 8 8 8 8 8 8 8 8 8 8 8 8 8 8 8 8 7 7 7 6 6 5 4 4 4 3 3 3
6 6 7 7 7 7 7 7 7 7 7 7 7 7 7 7 7 7 7 7 7 7 7 7 7 7 7 7 7 7 7 7 6 6 5 5 4 4 3 3 3 3 2
5 6 6 5 6 6 6 6 6 6 6 6 6 6 6 7 7 7 7 7 7 7 7 7 7 7 7 6 6 7 7 6 6 5 5 4 4 3 3 3 2 2 2
4 5 5 5 5 5 5 5 5 5 5 5 5 6 6 6 6 6 6 6 6 6 6 6 6 6 6 6 6 6 6 6 6 5 4 4 4 3 3 2 2 2 1
3 3 4 4 4 4 4 4 4 4 4 4 4 4 4 5 5 5 5 5 5 5 5 5 5 5 5 5 5 5 5 5 5 4 4 4 3 3 2 2 2 1 1
3 2 2 2 2 3 3 3 3 3 3 3 3 3 3 3 4 4 4 4 4 4 4 4 4 4 4 4 4 4 4 4 4 4 3 3 2 2 2 2 1 1 1
2 2 1 1 1 1 1 1 2 2 2 2 2 2 2 2 2 2 2 3 3 3 3 3 3 3 3 3 4 4 4 4 3 3 3 2 2 1 1 1 1 1 0
1 1 0 0 0 0 0 0 0 0 0 1 1 1 1 1 1 1 1 1 1 2 2 2 2 2 2 3 3 3 3 3 3 2 2 2 1 1 1 1 1 0 0
0 -0 -0 -0 -1 -1 -1 -1 -1 -1 -1 -0 -0 0 -0 -0 0 0 0 -0 0 0 1 1 1 1 2 2 2 2 2 2 2 2 2 1 1 1 0 0 0 -0 -0
-1 -1 -1 -1 -1 -1 -2 -2 -2 -2 -2 -1 -1 -1 -1 -1 -1 -1 -1 -1 -1 -1 -1 -0 0 1 1 1 1 1 1 1 1 1 1 1 0 0 0 -0 -0 -1 -1
-1 -1 -2 -2 -2 -2 -2 -2 -3 -3 -3 -3 -3 -3 -2 -2 -2 -2 -2 -2 -2 -2 -1 -1 -1 -0 -0 -0 0 1 1 1 1 1 1 0 0 -0 -1 -1 -1 -1 -1
-2 -2 -2 -3 -3 -3 -3 -3 -4 -4 -4 -4 -4 -4 -4 -3 -3 -3 -3 -3 -3 -3 -2 -2 -1 -1 -1 -1 -1 -0 0 0 0 0 0 -0 -1 -1 -1 -1 -1 -2 -2
-3 -3 -3 -4 -4 -4 -4 -4 -5 -5 -5 -5 -5 -5 -5 -4 -4 -4 -4 -4 -4 -3 -3 -3 -2 -2 -2 -1 -1 -1 -0 -0 -0 -0 -0 -1 -1 -1 -2 -2 -2 -2 -2
-4 -4 -4 -5 -5 -5 -5 -5 -5 -5 -5 -5 -6 -6 -6 -5 -5 -5 -5 -4 -4 -4 -4 -3 -3 -3 -3 -2 -2 -1 -1 -1 -1 -1 -1 -1 -1 -2 -2 -2 -3 -3 -3
-5 -5 -5 -6 -6 -6 -6 -7 -6 -6 -6 -6 -6 -6 -6 -6 -6 -5 -5 -5 -5 -4 -4 -4 -4 -3 -3 -3 -2 -2 -1 -1 -1 -1 -1 -1 -2 -2 -2 -3 -3 -3 -3
-6 -6 -6 -7 -7 -7 -7 -7 -8 -7 -7 -7 -6 -6 -6 -6 -6 -6 -6 -6 -5 -5 -5 -4 -4 -4 -4 -3 -3 -2 -2 -2 -2 -2 -2 -2 -2 -2 -3 -3 -3 -3 -3
-6 -7 -7 -7 -8 -8 -8 -8 -8 -8 -8 -8 -7 -7 -7 -7 -7 -6 -6 -6 -6 -5 -5 -5 -5 -4 -4 -3 -3 -3 -2 -2 -2 -2 -2 -2 -3 -3 -3 -3 -3 -4 -4
-7 -7 -8 -8 -8 -8 -9 -9 -9 -8 -8 -8 -8 -8 -7 -7 -7 -7 -7 -6 -6 -6 -5 -5 -5 -4 -4 -4 -3 -3 -3 -3 -3 -3 -3 -3 -3 -3 -3 -3 -4 -4 -4
-8 -8 -8 -9 -9 -9 -9 -9 -9 -9 -9 -9 -8 -8 -8 -8 -8 -7 -7 -7 -6 -6 -6 -6 -5 -5 -4 -4 -4 -4 -3 -3 -3 -3 -3 -3 -3 -3 -3 -3 -4 -4 -4
-9 -9 -9 -9 -9 -9 -9 -9 -9 -9 -9 -9 -9 -8 -8 -8 -8 -8 -7 -7 -7 -6 -6 -6 -5 -5 -5 -5 -4 -4 -4 -3 -3 -3 -3 -3 -3 -3 -3 -4 -4 -4 -4
-9 -9 -10 -10 -10 -10 -10 -10 -10 -10 -9 -9 -9 -9 -8 -8 -8 -8 -7 -7 -7 -7 -6 -6 -6 -5 -5 -5 -5 -4 -4 -4 -3 -3 -3 -3 -3 -3 -3 -4 -4 -4 -4
-10 -10 -10 -10 -10 -10 -10 -10 -10 -10 -10 -9 -9 -9 -9 -9 -8 -8 -8 -7 -7 -7 -6 -6 -6 -5 -5 -5 -5 -5 -4 -4 -4 -4 -3 -3 -3 -3 -3 -4 -4 -4 -4
-10 -10 -10 -10 -10 -10 -10 -10 -10 -10 -10 -10 -10 -9 -9 -9 -9 -8 -8 -7 -7 -7 -7 -6 -6 -6 -5 -5 -5 -5 -4 -4 -4 -4 -4 -4 -4 -4 -3 -4 -4 -4 -4
-10 -10 -11 -11 -11 -11 -11 -11 -11 -10 -10 -10 -10 -10 -9 -9 -9 -8 -8 -8 -7 -7 -7 -6 -6 -6 -5 -5 -5 -5 -5 -4 -4 -4 -4 -4 -4 -4 -4 -4 -4 -4 -4
Wind_Speed
12 11 11 10 10 9 7 7 5 3 2 0 1 2 3 4 4 5 6 6 8 7 7 8 8 6 6 5 5 5 5 4 4 2 2 2 4 5 6 7 7 6 6
11 11 11 11 11 10 10 9 8 6 5 3 2 1 3 3 4 5 6 7 7 8 8 8 8 7 7 6 5 5 5 5 5 4 3 3 4 5 5 4 5 5 5
10 11 11 11 11 11 10 9 8 7 6 5 4 3 3 3 4 5 5 6 6 7 8 9 9 9 8 6 6 6 5 4 4 4 4 3 2 3 4 3 3 3 4
9 10 10 10 9 9 9 9 9 8 7 6 5 4 3 3 3 3 3 4 5 5 6 7 8 9 9 9 8 8 6 6 5 5 4 3 3 3 4 4 3 3 3
8 9 9 8 8 8 8 9 8 8 8 7 6 5 4 3 3 3 3 4 5 5 5 6 7 8 10 10 8 9 9 7 6 6 5 4 4 4 5 4 4 3 2
7 7 7 8 8 8 8 8 8 8 8 7 7 7 6 5 7 7 5 4 5 5 6 5 5 7 10 13 13 13 13 10 9 7 6 7 7 6 5 5 4 4 4
6 7 7 7 8 8 8 8 8 8 8 8 7 7 7 8 10 9 8 5 5 5 6 5 5 6 8 7 10 13 13 14 13 9 8 8 7 8 8 6 5 5 4
5 6 6 6 7 7 7 8 8 7 7 7 8 8 8 9 11 11 10 6 5 6 6 7 7 7 7 8 7 7 7 8 10 8 8 8 7 8 9 8 7 5 3
5 6 6 6 7 7 7 8 6 6 7 7 7 8 8 9 12 12 11 5 5 6 6 7 7 8 12 13 9 8 7 6 7 9 10 10 11 12 11 7 6 5 3
6 6 6 6 6 7 7 7 6 6 7 8 8 7 8 9 12 13 11 5 5 6 5 6 10 12 13 14 11 10 11 8 7 7 7 7 7 9 14 9 9 6 4
7 7 7 6 7 7 7 6 7 7 8 8 9 8 7 9 11 13 12 6 5 6 6 6 7 13 16 16 14 11 13 10 8 8 7 5 4 4 5 6 6 6 5
7 7 8 7 7 7 7 7 7 7 8 8 8 9 7 7 10 12 14 12 10 7 6 6 7 12 14 16 13 13 15 12 7 7 7 6 6 5 4 5 5 5 4
7 8 8 8 7 7 7 8 7 6 6 7 7 8 8 6 7 14 15 15 13 8 7 9 11 13 13 12 15 16 14 9 8 8 9 8 6 6 6 5 5 6 7
8 9 8 8 8 7 6 6 7 7 7 8 8 8 8 8 7 6 7 9 11 9 7 9 12 13 11 11 11 11 9 9 10 10 9 7 6 6 5 4 4 4 4
8 9 8 8 8 8 8 7 8 8 9 10 9 8 9 10 10 15 12 9 7 8 8 6 5 5 6 6 6 7 7 9 9 8 8 8 8 7 6 5 4 4 4
8 8 7 7 8 8 9 10 13 14 18 19 18 16 13 16 19 19 19 18 18 16 10 6 7 7 7 8 8 8 8 9 9 9 9 9 9 9 8 6 4 5 5
8 9 8 8 8 9 9 9 11 13 16 17 18 19 19 19 19 19 19 18 18 15 9 7 7 7 7 7 7 8 8 9 9 10 10 10 10 10 9 8 7 6 5
9 10 10 8 8 9 9 9 10 11 12 9 12 17 19 19 18 18 18 15 10 8 6 7 7 7 7 7 7 8 8 8 9 10 10 10 10 10 10 10 9 8 6
9 8 8 8 8 9 9 9 9 11 11 11 10 11 16 16 17 17 14 8 7 7 7 7 7 7 6 6 7 7 8 9 9 10 10 11 11 10 10 10 9 12 9
8 13 12 9 9 9 9 9 10 10 10 10 10 9 9 10 8 8 7 6 7 7 7 7 6 6 6 6 6 6 7 8 10 10 10 11 11 11 11 12 11 10 9
8 10 14 11 9 9 10 10 10 10 10 10 10 11 15 10 9 8 8 7 7 7 7 6 6 6 6 6 6 7 8 8 9 10 10 11 11 11 10 10 10 10 9
8 8 9 9 9 10 10 9 9 10 10 11 10 11 16 10 8 8 8 8 7 6 6 6 6 5 6 6 6 6 7 8 9 10 10 11 11 11 11 11 10 10 10
8 9 9 9 10 13 12 9 9 9 10 10 10 10 9 8 8 8 8 7 6 5 5 5 5 5 5 5 6 7 8 8 9 10 11 11 11 11 11 11 12 13 12
7 8 9 10 10 9 10 10 10 10 10 9 9 9 9 8 8 8 8 6 5 5 5 5 5 6 7 6 5 6 6 7 8 10 12 12 12 11 11 11 12 13 12
7 8 9 9 9 10 10 10 10 10 9 9 9 9 9 8 8 8 7 6 6 6 6 5 4 5 6 7 6 6 8 11 11 10 10 10 12 13 12 13 12 12 11
7 8 8 8 9 9 9 9 10 10 9 9 8 8 8 8 8 8 7 6 6 5 5 4 4 5 6 5 6 7 9 12 13 14 11 10 11 11 12 11 13 12 12
Wind_Direction
34 35 36 36 34 36 37 30 26 29 32 1 239 227 221 219 217 219 221 215 216 216 209 206 208 197 193 189 181 177 178 169 181 162 143 144 156 169 164 168 174 177 183
31 33 33 32 32 32 28 22 18 17 11 357 331 279 253 241 230 227 228 221 217 217 215 209 205 195 194 186 182 186 182 171 166 174 168 163 167 173 164 167 175 185 190
30 32 30 27 26 22 17 13 12 10 5 360 352 329 294 271 251 242 237 232 226 220 211 205 203 194 196 189 186 185 181 173 158 162 168 161 151 154 154 168 172 177 194
29 30 28 22 19 15 11 8 6 4 2 354 343 331 319 303 280 261 244 236 232 226 217 209 204 196 195 190 190 188 178 173 164 161 165 161 157 152 157 173 189 198 203
26 27 21 13 12 11 8 4 0 360 356 349 342 337 332 318 300 290 270 247 235 231 224 217 213 204 199 197 193 188 181 180 176 180 180 173 178 173 186 177 190 178 201
19 16 9 8 8 5 360 357 356 353 348 345 342 334 329 322 314 304 292 260 245 234 231 226 219 209 207 207 203 194 187 185 190 190 193 197 196 189 173 173 167 168 212
7 1 358 357 357 354 351 351 348 342 339 336 329 325 315 306 307 301 294 283 255 243 232 224 224 218 209 204 206 203 202 202 195 190 196 200 189 187 174 174 180 183 197
349 345 343 343 341 339 341 338 332 328 328 324 319 315 308 302 302 297 292 282 263 250 238 227 223 217 209 198 194 197 200 204 201 197 198 195 188 179 179 179 178 155 107
337 331 329 330 329 329 329 323 317 318 317 314 311 309 304 302 303 299 292 275 262 256 247 235 225 222 217 208 200 198 201 210 206 194 192 188 186 183 170 147 149 154 171
322 317 315 317 318 317 314 310 308 309 305 306 303 298 293 292 297 299 295 276 266 262 252 240 233 230 223 215 208 201 206 203 181 178 178 179 178 184 184 176 171 168 154
310 312 315 315 311 306 307 306 307 307 308 306 300 296 291 293 301 300 295 286 267 265 257 247 239 235 231 224 219 212 211 192 179 175 168 159 149 154 165 167 171 168 166
309 310 309 308 308 311 305 303 302 303 305 304 302 302 295 294 299 301 297 290 285 274 267 256 247 242 238 231 227 220 208 191 172 173 175 179 178 174 163 154 154 150 152
303 300 299 300 298 297 297 301 303 299 297 298 297 298 299 296 297 302 301 297 290 283 271 267 262 253 247 239 230 221 205 188 176 182 191 191 178 162 142 126 111 107 88
303 302 300 300 299 297 293 290 292 292 292 293 293 294 295 294 291 292 292 293 291 284 276 269 266 259 250 239 228 221 204 189 187 190 187 169 151 151 155 150 147 144 126
299 298 298 295 293 296 292 285 286 276 278 288 286 285 289 291 289 296 297 291 286 279 284 271 256 249 238 230 219 209 195 189 191 179 172 167 167 167 167 158 147 149 156
299 299 298 297 295 293 295 297 292 289 293 293 290 289 287 286 292 294 295 293 292 286 282 264 253 245 240 231 222 211 201 195 188 179 176 175 175 175 171 164 159 163 169
294 297 297 296 295 295 295 296 300 301 295 292 292 293 291 291 292 293 294 293 290 284 274 259 252 245 241 234 226 217 208 197 185 181 181 179 176 175 174 176 176 172 175
297 298 299 292 292 292 291 290 291 296 300 296 294 294 294 294 293 294 294 296 285 275 259 257 254 247 240 235 228 222 209 191 187 186 183 179 177 177 179 181 182 179 177
303 299 296 293 292 293 292 291 290 289 290 292 294 295 296 296 294 290 291 280 277 274 266 259 252 247 241 236 231 221 209 198 191 188 185 181 180 179 182 182 182 187 181
304 306 310 304 299 298 295 293 293 292 292 292 292 293 296 295 289 283 275 269 272 274 270 264 254 243 239 235 227 219 210 201 194 192 187 183 182 183 182 181 182 185 188
304 307 312 309 302 301 299 295 294 294 293 293 290 290 295 294 290 285 279 274 269 271 271 266 257 247 237 231 224 215 209 204 197 191 187 183 181 183 182 182 183 183 180
306 306 309 307 306 304 302 299 299 297 297 295 295 295 298 295 289 285 280 276 270 263 262 259 255 247 234 226 224 218 210 203 197 191 186 182 182 182 179 180 180 180 180
308 309 311 310 308 309 311 306 303 301 299 298 298 297 296 292 289 288 285 282 275 270 266 260 255 253 241 228 224 219 211 204 197 189 185 182 181 181 180 181 180 179 181
311 311 312 312 312 310 310 309 307 305 306 304 302 302 302 300 297 296 293 287 280 275 269 261 254 250 247 240 232 222 211 200 192 189 185 183 181 180 180 181 182 183 183
313 311 312 311 310 311 311 311 311 310 311 312 311 310 310 309 306 303 298 291 284 276 271 266 256 247 245 241 236 228 216 203 195 187 183 183 181 180 180 180 181 179 179
314 313 312 312 310 310 310 310 310 312 311 310 310 310 310 311 310 309 307 304 299 290 280 273 263 258 251 245 237 225 214 206 198 189 182 180 180 181 179 180 178 179 177
Height
1451 1450 1450 1450 1450 1451 1451 1452 1453 1454 1456 1457 1458 1459 1461 1462 1463 1464 1465 1466 1467 1468 1469 1470 1471 1473 1474 1475 1477 1479 1480 1482 1484 1485 1487 1488 1490 1491 1492 1493 1494 1494 1495
1454 1453 1453 1452 1452 1452 1452 1452 1452 1453 1453 1454 1455 1455 1456 1457 1458 1458 1459 1459 1460 1461 1462 1463 1464 1466 1467 1469 1470 1472 1474 1476 1478 1479 1481 1483 1484 1486 1487 1488 1489 1490 1490
1457 1456 1455 1454 1453 1453 1452 1452 1452 1451 1451 1451 1451 1451 1452 1452 1453 1453 1453 1453 1453 1454 1455 1456 1457 1459 1460 1462 1464 1466 1468 1470 1471 1473 1475 1477 1478 1480 1481 1483 1484 1485 1485
1459 1458 1457 1455 1454 1453 1452 1451 1451 1450 1449 1449 1448 1448 1447 1447 1447 1447 1447 1447 1448 1448 1449 1449 1451 1452 1454 1456 1458 1460 1462 1464 1465 1467 1469 1471 1472 1474 1476 1477 1478 1480 1481
1461 1459 1457 1456 1455 1453 1452 1450 1449 1448 1447 1446 1445 1444 1443 1443 1443 1442 1442 1442 1442 1442 1443 1444 1445 1446 1448 1450 1452 1453 1455 1457 1459 1460 1462 1464 1466 1467 1469 1471 1473 1474 1475
1460 1459 1457 1455 1453 1452 1450 1448 1447 1445 1444 1442 1441 1440 1439 1438 1438 1437 1437 1436 1436 1436 1436 1437 1439 1440 1442 1444 1446 1447 1449 1450 1451 1453 1454 1456 1458 1461 1463 1465 1467 1468 1470
1459 1458 1456 1454 1452 1449 1447 1445 1443 1441 1440 1438 1436 1435 1434 1434 1433 1432 1432 1431 1430 1430 1430 1431 1432 1434 1436 1437 1439 1440 1442 1443 1445 1447 1448 1449 1452 1455 1457 1459 1461 1463 1465
1459 1457 1454 1452 1449 1447 1445 1442 1440 1438 1435 1433 1432 1431 1429 1429 1428 1427 1426 1425 1424 1424 1424 1425 1425 1426 1428 1430 1432 1433 1434 1436 1438 1439 1442 1444 1447 1449 1451 1454 1456 1458 1460
1457 1454 1452 1449 1447 1444 1442 1439 1437 1434 1431 1429 1427 1426 1424 1423 1422 1421 1420 1418 1417 1417 1418 1418 1419 1420 1421 1423 1424 1425 1427 1429 1431 1433 1435 1438 1440 1443 1445 1447 1449 1452 1453
1454 1452 1449 1447 1444 1441 1438 1435 1432 1429 1427 1424 1422 1420 1418 1417 1416 1415 1414 1412 1411 1410 1410 1411 1412 1413 1414 1415 1417 1418 1419 1422 1424 1426 1429 1431 1434 1436 1438 1441 1444 1446 1448
1451 1448 1446 1443 1440 1437 1434 1431 1428 1425 1422 1419 1416 1414 1412 1410 1409 1408 1407 1406 1404 1403 1403 1403 1405 1406 1407 1408 1410 1411 1412 1415 1417 1419 1422 1425 1427 1429 1432 1435 1438 1441 1443
1447 1444 1442 1439 1436 1433 1429 1426 1423 1420 1416 1413 1410 1408 1406 1404 1403 1401 1400 1399 1398 1397 1396 1397 1397 1399 1400 1401 1402 1403 1406 1408 1409 1412 1414 1417 1420 1423 1426 1429 1432 1435 1438
1443 1440 1437 1434 1431 1428 1424 1420 1417 1414 1411 1407 1405 1401 1399 1398 1396 1395 1393 1392 1391 1390 1389 1389 1390 1390 1391 1393 1394 1396 1398 1399 1402 1405 1407 1411 1415 1418 1421 1424 1426 1429 1432
1438 1435 1431 1428 1425 1422 1419 1415 1412 1408 1405 1402 1399 1396 1393 1390 1389 1388 1386 1385 1384 1383 1382 1382 1382 1382 1383 1385 1387 1388 1390 1392 1395 1398 1401 1405 1408 1411 1414 1418 1420 1423 1426
1433 1429 1426 1422 1418 1415 1412 1409 1405 1402 1400 1397 1393 1390 1387 1384 1383 1382 1380 1379 1378 1377 1376 1374 1374 1375 1376 1377 1378 1380 1382 1385 1388 1391 1395 1398 1401 1405 1408 1412 1415 1418 1421
1427 1423 1420 1416 1412 1408 1404 1401 1398 1396 1393 1390 1387 1385 1381 1379 1376 1375 1374 1372 1371 1370 1369 1367 1367 1367 1368 1369 1371 1373 1375 1377 1380 1384 1388 1391 1395 1398 1402 1406 1409 1413 1416
1422 1418 1414 1410 1406 1402 1398 1394 1389 1387 1385 1382 1380 1377 1374 1372 1370 1368 1366 1365 1364 1363 1362 1360 1360 1360 1361 1362 1364 1366 1368 1371 1374 1377 1381 1385 1389 1393 1396 1400 1404 1407 1411
1416 1412 1408 1404 1400 1396 1392 1389 1385 1380 1376 1373 1372 1370 1367 1365 1363 1361 1359 1358 1356 1355 1354 1353 1353 1353 1354 1355 1357 1359 1361 1364 1367 1371 1374 1378 1382 1386 1390 1394 1398 1402 1406
1410 1406 1402 1398 1394 1390 1387 1383 1379 1375 1371 1367 1364 1362 1360 1358 1355 1354 1352 1351 1349 1348 1347 1347 1347 1347 1347 1349 1350 1352 1355 1357 1360 1364 1367 1371 1376 1380 1384 1388 1393 1397 1401
1404 1400 1396 1392 1388 1384 1380 1377 1373 1369 1366 1362 1359 1356 1354 1351 1348 1347 1346 1344 1343 1342 1341 1341 1340 1341 1341 1343 1344 1346 1348 1351 1354 1357 1361 1365 1369 1374 1378 1383 1387 1391 1395
1398 1394 1391 1387 1383 1379 1375 1371 1368 1364 1361 1357 1354 1351 1349 1346 1343 1341 1340 1338 1337 1336 1335 1335 1334 1335 1336 1336 1338 1340 1342 1344 1347 1351 1355 1359 1363 1368 1373 1377 1382 1387 1391
1394 1390 1386 1382 1378 1374 1370 1366 1363 1359 1355 1352 1348 1346 1343 1341 1338 1336 1334 1332 1331 1330 1330 1329 1329 1329 1330 1331 1332 1334 1336 1338 1341 1345 1349 1353 1358 1362 1367 1372 1376 1381 1386
1390 1385 1381 1377 1373 1369 1365 1361 1358 1354 1351 1347 1344 1341 1338 1336 1333 1331 1329 1327 1326 1325 1324 1324 1324 1324 1325 1326 1327 1329 1330 1333 1336 1340 1344 1348 1352 1357 1361 1366 1371 1375 1380
1385 1381 1377 1372 1368 1364 1361 1357 1353 1350 1346 1343 1340 1337 1334 1331 1329 1326 1324 1322 1321 1320 1319 1319 1319 1319 1320 1320 1322 1323 1326 1328 1331 1335 1339 1343 1347 1351 1356 1361 1366 1370 1375
1381 1377 1373 1368 1365 1361 1357 1353 1349 1346 1343 1339 1336 1333 1330 1327 1324 1322 1320 1318 1317 1315 1315 1315 1314 1315 1315 1316 1317 1319 1321 1324 1327 1330 1334 1339 1343 1347 1351 1356 1361 1366 1370
1377 1373 1369 1365 1361 1357 1353 1349 1346 1343 1339 1336 1333 1330 1327 1324 1321 1318 1316 1314 1313 1311 1311 1311 1311 1311 1312 1312 1314 1315 1317 1320 1323 1326 1330 1334 1338 1342 1347 1352 1356 1361 1365